1493985600.4,23164,16.56,73782.3,8.99,0.37,0.59,0,*7F
1493985601.63,23165,16.5,73778.8,9.01,0.67,0.79,0,*79
1493985602.86,23166,16.56,73782.0,9.01,0.67,0.79,0,*7A
1493985604.07,23167,16.56,73780.0,9.01,0.09,0.33,0,*4D
1493985605.29,23168,16.5,73780.0,9.01,0.21,0.43,0,*7F
1493985606.5,23169,16.5,73778.0,9.03,0.33,0.55,0,*78
1493985607.67,23170,16.5,73776.3,9.03,-0.11,0.01,0,*6C
1493985608.87,23171,16.5,73778.5,9.01,-0.29,-0.19,0,*70
1493985610.04,23172,16.5,73776.3,9.03,-0.11,0.01,0,*6E
1493985611.23,23173,16.56,73778.8,9.01,-0.07,0.01,0,*5A
1493985612.4,23174,16.56,73780.8,9.03,-0.29,-0.19,0,*77
1493985613.61,23175,16.5,73776.5,9.01,-0.69,-0.57,0,*7A
1493985614.82,23176,16.5,73778.3,9.01,-0.73,-0.69,0,*7F
1493985616.02,23177,16.5,73776.5,9.01,-0.65,-0.73,0,*72
1493985617.25,23178,16.56,73778.5,8.97,-0.27,-0.15,0,*75
1493985618.46,23179,16.5,73778.0,8.97,-0.37,-0.45,0,*70
1493985619.7,23180,16.5,73776.3,8.97,-0.85,-0.85,0,*73
1493985620.95,23181,16.56,73780.0,8.97,-0.89,-0.89,0,*72
1493985622.15,23182,16.5,73776.5,8.95,-0.81,-0.85,0,*77
1493985623.32,23183,16.56,73780.8,8.95,-0.07,-0.07,0,*72
1493985624.55,23184,16.5,73776.3,8.93,0.75,0.79,0,*7F
1493985625.76,23185,16.56,73782.8,8.95,0.71,0.71,0,*74
1493985626.98,23186,16.56,73780.8,8.95,0.71,0.71,0,*77
1493985628.21,23187,16.56,73782.5,8.97,0.75,0.83,0,*7D
1493985629.45,23188,16.56,73780.3,8.97,0.71,0.71,0,*7B
1493985630.69,23189,16.56,73778.5,8.97,0.83,0.87,0,*7E
1493985631.91,23190,16.56,73782.3,8.99,0.83,0.87,0,*78
1493985633.11,23191,16.5,73776.5,8.99,0.41,0.41,0,*7D
1493985634.32,23192,16.56,73778.8,8.99,0.41,0.47,0,*78
1493985635.54,23193,16.5,73778.0,8.99,0.51,0.51,0,*7F
1493985636.75,23194,16.56,73778.8,9.01,0.09,0.17,0,*47
1493985637.95,23195,16.56,73782.0,8.99,0.13,0.13,0,*79
1493985639.16,23196,16.56,73780.5,8.99,0.29,0.29,0,*7A
1493985640.36,23197,16.56,73778.8,9.01,-0.45,-0.45,0,*7B
1493985641.54,23198,16.5,73778.5,8.99,-0.45,-0.45,0,*74
1493985642.74,23199,16.5,73776.3,8.97,-0.45,-0.45,0,*7B
1493985643.93,23200,16.5,73778.0,8.97,-0.61,-0.61,0,*78
1493985645.11,23201,16.5,73776.3,8.99,-0.57,-0.57,0,*77
1493985646.32,23202,16.56,73776.5,8.95,-1.25,-1.39,0,*75
1493985647.53,23203,16.56,73776.0,8.93,-0.45,-0.41,0,*7B
1493985648.73,23204,16.56,73776.8,8.93,-0.45,-0.53,0,*7F
1493985649.93,23205,16.5,73774.3,8.93,-0.69,-0.81,0,*7F
1493985651.14,23206,16.5,73776.0,8.93,-0.69,-0.69,0,*7A
1493985652.34,23207,16.5,73776.5,8.93,-0.41,-0.45,0,*7F
1493985653.51,23208,16.5,73776.8,8.91,0.05,-0.03,0,*5D
1493985654.7,23209,16.5,73776.3,8.91,0.51,0.43,0,*74
1493985655.88,23210,16.56,73780.0,8.91,-0.03,-0.19,0,*44
1493985657.04,23211,16.56,73778.3,8.91,0.09,0.09,0,*7E
1493985658.22,23212,16.56,73776.3,8.91,0.43,0.41,0,*7F
1493985659.45,23213,16.56,73778.8,8.93,0.21,0.17,0,*7B
1493985660.69,23214,16.56,73776.0,8.93,0.63,0.51,0,*78
1493985661.93,23215,16.5,73774.3,8.93,0.83,0.83,0,*78
1493985663.13,23216,16.5,73776.3,8.93,1.01,1.01,0,*7B
1493985664.35,23217,16.5,73778.0,8.95,0.87,0.79,0,*7D
1493985665.56,23218,16.5,73776.8,8.95,0.83,0.71,0,*7E
1493985666.77,23219,16.56,73776.3,8.95,0.67,0.47,0,*70
1493985667.97,23220,16.56,73776.8,8.95,0.67,0.59,0,*75
1493985669.16,23221,16.5,73776.0,8.95,0.21,0.09,0,*43
1493985670.38,23222,16.5,73778.0,8.95,0.79,0.71,0,*72
1493985671.58,23223,16.5,73776.3,8.95,1.17,1.05,0,*78
1493985672.83,23224,16.56,73776.3,8.97,0.91,0.75,0,*74
1493985674.06,23225,16.5,73776.3,8.97,0.75,0.71,0,*7B
1493985675.3,23226,16.56,73778.5,8.97,0.83,0.71,0,*71
1493985676.54,23227,16.5,73778.3,8.97,0.83,0.75,0,*74
1493985677.75,23228,16.5,73772.0,8.99,0.75,0.71,0,*78
1493985678.97,23229,16.5,73778.3,8.99,0.83,0.75,0,*74
1493985680.17,23230,16.5,73774.0,8.99,0.29,0.13,0,*7C
1493985681.37,23231,16.5,73776.5,8.97,-0.37,-0.57,0,*7C
1493985682.61,23232,16.56,73776.8,8.97,0.47,0.47,0,*79
1493985683.85,23233,16.56,73778.5,8.97,0.75,0.71,0,*7C
1493985685.1,23234,16.5,73774.5,8.97,0.87,0.91,0,*78
1493985686.33,23235,16.5,73776.3,8.97,0.75,0.83,0,*77
1493985687.57,23236,16.5,73778.0,8.97,0.47,0.59,0,*72
1493985688.81,23237,16.56,73778.3,9.01,0.75,0.87,0,*7F
1493985690.03,23238,16.5,73776.8,8.99,0.83,0.83,0,*7D
1493985691.24,23239,16.56,73780.3,8.99,0.41,0.51,0,*7D
1493985692.46,23240,16.56,73778.5,8.99,0.83,0.91,0,*71
1493985693.66,23241,16.5,73768.8,8.99,0.17,0.25,0,*72
1493985694.85,23242,16.5,73772.8,8.97,0.05,-0.03,0,*55
1493985696.0,23243,16.5,73774.8,8.99,0.01,0.05,0,*75
1493985697.22,23244,16.5,73774.5,8.99,0.47,0.59,0,*79
1493985698.45,23245,16.5,73776.0,8.97,0.17,0.25,0,*78
1493985699.68,23246,16.56,73778.0,8.97,0.59,0.63,0,*73
1493985700.92,23247,16.5,73772.3,8.97,0.47,0.47,0,*7B
1493985702.08,23248,16.5,73774.0,8.99,0.05,0.05,0,*7A
1493985703.32,23249,16.5,73774.0,8.97,0.71,0.71,0,*75
1493985704.55,23250,16.56,73776.8,8.97,0.37,0.41,0,*7C
1493985705.77,23251,16.5,73772.8,8.99,0.47,0.47,0,*72
1493985707.0,23252,16.56,73776.8,8.97,0.25,0.25,0,*7F
1493985708.16,23253,16.5,73772.8,8.95,0.43,0.43,0,*7C
1493985709.34,23254,16.5,73768.0,8.95,0.43,0.55,0,*7C
1493985710.54,23255,16.5,73772.3,8.99,0.37,0.41,0,*77
1493985711.73,23256,16.5,73772.0,8.97,0.05,0.05,0,*7B
1493985712.92,23257,16.56,73776.3,8.97,0.05,0.05,0,*7A
1493985714.07,23258,16.5,73774.3,8.95,0.01,0.01,0,*77
1493985715.27,23259,16.5,73772.3,8.95,0.29,0.41,0,*78
1493985716.43,23260,16.5,73776.3,8.95,0.43,0.43,0,*7C
1493985717.61,23261,16.5,73770.8,8.95,0.43,0.41,0,*7F
1493985718.8,23262,16.5,73776.0,8.93,0.05,-0.03,0,*53
1493985720.0,23263,16.5,73772.0,8.93,-0.53,-0.65,0,*7C
1493985721.22,23264,16.5,73774.8,8.93,-0.81,-0.93,0,*7D
1493985722.45,23265,16.5,73774.8,8.89,-0.27,-0.49,0,*7C
1493985723.68,23266,16.56,73778.0,8.89,-0.81,-0.89,0,*7F
1493985724.86,23267,16.5,73774.8,8.87,-0.57,-0.73,0,*7E
1493985726.08,23268,16.5,73776.0,8.85,-0.61,-0.85,0,*7F
1493985727.28,23269,16.56,73778.0,8.85,-0.15,-0.29,0,*7B
1493985728.51,23270,16.56,73776.0,8.81,-0.93,-1.17,0,*45
1493985729.76,23271,16.5,73776.3,8.81,-1.17,-1.39,0,*75
1493985731.02,23272,16.5,73776.8,8.81,-0.89,-1.05,0,*4F
1493985732.22,23273,16.56,73778.0,8.79,-0.69,-0.97,0,*7D
1493985733.48,23274,16.5,73774.5,8.75,-0.85,-1.09,0,*42
1493985734.68,23275,16.5,73776.3,8.73,-0.11,-0.23,0,*71
1493985735.86,23276,16.56,73782.0,8.73,-0.15,-0.29,0,*7C
1493985737.06,23277,16.5,73776.0,8.75,-0.49,-0.69,0,*76
1493985738.26,23278,16.56,73780.5,8.75,-0.49,-0.73,0,*72
1493985739.46,23279,16.5,73774.5,8.71,-0.45,-0.69,0,*70
1493985740.66,23280,16.56,73776.0,8.71,-0.29,-0.53,0,*75
1493985741.87,23281,16.5,73774.3,8.71,-0.07,-0.41,0,*4B
1493985743.07,23282,16.56,73778.8,8.71,-0.57,-0.81,0,*71
1493985744.28,23283,16.5,73778.0,8.69,-0.73,-0.97,0,*78
1493985745.52,23284,16.5,73774.5,8.67,-0.23,-0.37,0,*7E
1493985746.73,23285,16.5,73772.3,8.67,-0.19,-0.37,0,*76
1493985747.94,23286,16.56,73776.0,8.67,-0.11,-0.29,0,*72
1493985749.13,23287,16.5,73774.3,8.65,-0.61,-0.89,0,*7C
1493985750.34,23288,16.5,73776.3,8.65,-0.49,-0.85,0,*75
1493985751.57,23289,16.5,73774.0,8.63,-0.89,-1.17,0,*44
1493985752.8,23290,16.56,73778.8,8.63,-0.65,-0.89,0,*78
1493985754.04,23291,16.5,73776.3,8.59,-0.65,-1.05,0,*45
1493985755.22,23292,16.5,73778.0,8.57,-0.07,-0.33,0,*48
1493985756.4,23293,16.5,73772.0,8.57,-0.19,-0.33,0,*76
1493985757.58,23294,16.56,73778.5,8.57,-0.33,-0.57,0,*7B
1493985758.78,23295,16.5,73776.0,8.57,-0.07,-0.23,0,*4E
1493985759.97,23296,16.5,73776.5,8.57,-0.19,-0.41,0,*76
1493985761.15,23297,16.5,73776.5,8.53,-0.41,-0.61,0,*7C
1493985762.36,23298,16.56,73778.3,8.53,-0.53,-0.85,0,*7A
1493985763.56,23299,16.5,73774.0,8.53,-0.23,-0.45,0,*70
1493985764.77,23300,16.5,73772.5,8.53,0.13,-0.11,0,*5E
1493985765.95,23301,16.5,73774.3,8.53,-0.15,-0.45,0,*75
1493985767.15,23302,16.56,73780.8,8.53,-0.61,-0.97,0,*7A
1493985768.35,23303,16.5,73772.3,8.51,-0.15,-0.53,0,*72
1493985769.53,23304,16.5,73774.8,8.49,-0.37,-0.65,0,*79
1493985770.74,23305,16.5,73776.3,8.51,-0.15,-0.37,0,*76
1493985771.91,23306,16.5,73774.5,8.49,0.05,-0.15,0,*60
1493985773.09,23307,16.5,73778.3,8.49,0.05,-0.19,0,*6D
1493985774.27,23308,16.5,73776.8,8.49,-0.41,-0.65,0,*74
1493985775.44,23309,16.5,73778.8,8.49,-0.29,-0.65,0,*7B
1493985776.67,23310,16.5,73776.5,8.47,-0.57,-0.93,0,*7D
1493985777.86,23311,16.5,73774.8,8.47,0.01,-0.29,0,*63
1493985779.08,23312,16.5,73778.0,8.47,0.29,0.05,0,*49
1493985780.29,23313,16.5,73774.8,8.45,-0.23,-0.45,0,*74
1493985781.49,23314,16.5,73774.8,8.45,-0.57,-0.93,0,*7B
1493985782.7,23315,16.5,73774.5,8.45,-0.93,-1.33,0,*49
1493985783.9,23316,16.5,73776.5,8.41,-0.53,-0.81,0,*7A
1493985785.08,23317,16.5,73776.3,8.39,-0.07,-0.37,0,*48
1493985786.26,23318,16.56,73780.0,8.39,0.17,-0.07,0,*68
1493985787.47,23319,16.5,73778.8,8.41,0.37,0.09,0,*47
1493985788.68,23320,16.5,73778.8,8.41,0.33,0.09,0,*49
1493985789.9,23321,16.5,73782.3,8.41,0.21,-0.03,0,*6C
1493985791.07,23322,16.5,73778.8,8.39,-0.29,-0.77,0,*76
1493985792.24,23323,16.5,73776.0,8.39,0.09,-0.15,0,*6C
1493985793.44,23324,16.5,73776.0,8.39,0.37,0.17,0,*79
1493985794.66,23325,16.5,73778.5,8.41,0.43,0.21,0,*71
1493985795.88,23326,16.5,73776.5,8.41,0.05,-0.27,0,*6B
1493985797.05,23327,16.56,73780.5,8.39,-0.29,-0.69,0,*7C
1493985798.25,23328,16.5,73776.8,8.39,-0.27,-0.53,0,*74
1493985799.44,23329,16.5,73776.8,8.39,0.17,-0.15,0,*59
1493985800.63,23330,16.5,73776.5,8.39,0.21,-0.15,0,*54
1493985801.82,23331,16.5,73780.5,8.39,0.25,-0.03,0,*66
1493985803.03,23332,16.5,73780.0,8.39,0.17,-0.27,0,*52
1493985804.21,23333,16.5,73778.3,8.39,0.37,0.05,0,*4C
1493985805.4,23334,16.5,73776.8,8.39,0.33,-0.03,0,*64
1493985806.58,23335,16.5,73782.3,8.39,0.17,-0.29,0,*5B
1493985807.77,23336,16.5,73780.3,8.39,0.25,-0.07,0,*65
1493985808.93,23337,16.5,73782.5,8.39,0.05,-0.29,0,*6A
1493985810.11,23338,16.5,73780.8,8.39,0.25,-0.07,0,*6B
1493985811.31,23339,16.5,73780.3,8.39,0.17,-0.37,0,*58
1493985812.51,23340,16.5,73780.8,8.35,-0.57,-1.01,0,*47
1493985813.71,23341,16.5,73780.0,8.35,-0.53,-0.97,0,*7C
1493985814.93,23342,16.5,73782.0,8.33,-0.49,-0.89,0,*7D
1493985816.13,23343,16.5,73782.8,8.33,-0.33,-0.77,0,*70
1493985817.32,23344,16.5,73776.8,8.31,-0.73,-1.21,0,*43
1493985818.52,23345,16.56,73780.0,8.31,-0.73,-1.13,0,*43
1493985819.76,23346,16.5,73778.8,8.29,-0.81,-1.13,0,*44
1493985820.97,23347,16.5,73778.8,8.29,0.05,-0.27,0,*62
1493985822.17,23348,16.5,73778.8,8.29,0.09,-0.07,0,*53
1493985823.38,23349,16.56,73782.5,8.29,0.21,-0.03,0,*6C
1493985824.58,23350,16.56,73780.3,8.29,-0.29,-0.53,0,*74
1493985825.78,23351,16.5,73778.5,8.27,-0.27,-0.53,0,*75
1493985826.98,23352,16.5,73778.8,8.25,-0.45,-0.69,0,*79
1493985828.21,23353,16.5,73780.5,8.25,-0.69,-0.97,0,*77
1493985829.43,23354,16.5,73776.0,8.25,-0.77,-0.97,0,*7F
1493985830.63,23355,16.5,73778.5,8.23,-1.63,-1.95,0,*7F
1493985831.87,23356,16.5,73778.3,8.21,-1.55,-1.83,0,*7C
1493985833.07,23357,16.5,73780.8,8.19,-0.93,-1.29,0,*4D
1493985834.31,23358,16.5,73778.8,8.17,-0.93,-1.17,0,*41
1493985835.53,23359,16.5,73776.8,8.17,-0.61,-0.85,0,*77
1493985836.72,23360,16.5,73776.8,8.17,-0.07,-0.29,0,*4B
1493985837.95,23361,16.5,73778.3,8.17,0.13,-0.15,0,*5D
1493985839.17,23362,16.5,73782.5,8.17,-0.03,-0.27,0,*43
1493985840.4,23363,16.5,73776.5,8.17,-0.03,-0.27,0,*42
1493985841.6,23364,16.5,73776.0,8.17,-0.29,-0.53,0,*7E
1493985842.83,23365,16.5,73778.5,8.17,-0.65,-1.01,0,*41
1493985844.06,23366,16.5,73780.8,8.11,-0.69,-0.93,0,*72
1493985845.28,23367,16.5,73780.0,8.11,-0.27,-0.57,0,*71
1493985846.47,23368,16.5,73780.5,8.11,0.01,-0.15,0,*61
1493985847.64,23369,16.5,73780.0,8.15,-0.07,-0.29,0,*40
1493985848.87,23370,16.5,73776.8,8.11,-0.11,-0.27,0,*75
1493985850.1,23371,16.5,73778.3,8.11,-0.11,-0.27,0,*74
1493985851.3,23372,16.56,73782.0,8.11,-0.37,-0.61,0,*71
1493985852.52,23373,16.5,73778.8,8.11,-0.61,-0.85,0,*79
1493985853.73,23374,16.5,73776.0,8.09,-0.81,-1.09,0,*4C
1493985854.93,23375,16.5,73780.0,8.07,-0.65,-0.77,0,*71
1493985856.14,23376,16.5,73780.8,8.05,-0.81,-1.09,0,*42
1493985857.34,23377,16.5,73776.5,8.05,-0.65,-0.89,0,*70
1493985858.51,23378,16.5,73776.8,8.05,-0.33,-0.53,0,*7B
1493985859.68,23379,16.5,73778.0,8.05,-0.45,-0.65,0,*7E
1493985860.9,23380,16.5,73778.5,8.03,-0.19,-0.33,0,*74
1493985862.1,23381,16.5,73778.3,8.03,-0.53,-0.77,0,*7B
1493985863.33,23382,16.5,73778.5,8.03,-0.23,-0.53,0,*79
1493985864.55,23383,16.5,73776.8,7.99,-0.61,-0.89,0,*75
1493985865.78,23384,16.5,73780.3,7.99,-0.27,-0.49,0,*7C
1493985866.98,23385,16.5,73778.5,7.99,0.01,-0.15,0,*6D
1493985868.18,23386,16.56,73780.5,8.01,-0.07,-0.23,0,*4E
1493985869.38,23387,16.5,73780.8,7.99,-0.37,-0.61,0,*74
1493985870.56,23388,16.5,73776.5,7.97,-0.49,-0.77,0,*7B
1493985871.77,23389,16.5,73780.3,7.97,-0.27,-0.41,0,*77
1493985872.95,23390,16.5,73776.8,7.97,-0.29,-0.49,0,*79
1493985874.17,23391,16.5,73782.5,7.97,-0.77,-1.09,0,*46
1493985875.37,23392,16.5,73782.3,7.95,-0.41,-0.65,0,*79
1493985876.56,23393,16.5,73782.5,7.93,-0.19,-0.33,0,*70
1493985877.74,23394,16.5,73778.8,7.93,-0.07,-0.29,0,*43
1493985878.92,23395,16.5,73780.0,7.93,-0.07,-0.33,0,*49
1493985880.09,23396,16.5,73780.0,7.93,-0.03,-0.29,0,*45
1493985881.27,23397,16.5,73780.5,7.93,0.09,-0.15,0,*6C
1493985882.46,23398,16.5,73780.8,7.93,0.33,0.09,0,*4A
1493985883.68,23399,16.5,73782.0,7.95,0.21,-0.07,0,*6D
1493985884.88,23400,16.5,73780.0,7.89,0.17,-0.07,0,*62
1493985886.08,23401,16.5,73780.8,7.93,0.17,-0.15,0,*5B
1493985887.27,23402,16.5,73780.5,7.93,0.21,-0.03,0,*6A
1493985888.46,23403,16.5,73782.0,7.93,0.43,0.17,0,*77
1493985889.64,23404,16.5,73780.0,7.89,-0.19,-0.45,0,*73
1493985890.83,23405,16.5,73782.5,7.89,-0.45,-0.69,0,*75
1493985892.03,23406,16.5,73780.5,7.89,-0.45,-0.85,0,*74
1493985893.25,23407,16.5,73780.3,7.89,-0.73,-1.05,0,*49
1493985894.48,23408,16.5,73780.0,7.87,-0.61,-1.05,0,*4B
1493985895.7,23409,16.5,73782.0,7.87,-0.11,-0.49,0,*74
1493985896.95,23410,16.5,73782.8,7.87,0.21,-0.23,0,*5E
1493985898.17,23411,16.5,73780.8,7.85,0.41,0.21,0,*74
1493985899.41,23412,16.5,73782.0,7.87,0.41,0.13,0,*74
1493985900.63,23413,16.5,73780.5,7.87,0.37,0.01,0,*47
1493985901.84,23414,16.5,73782.8,7.89,0.37,0.13,0,*7D
1493985903.04,23415,16.5,73782.8,7.89,0.25,-0.07,0,*67
1493985904.21,23416,16.5,73780.0,7.89,0.05,-0.33,0,*61
1493985905.42,23417,16.5,73782.8,7.89,-0.23,-0.61,0,*7E
1493985906.6,23418,16.5,73782.5,7.89,-0.19,-0.57,0,*7D
1493985907.84,23419,16.5,73780.5,7.87,-0.89,-1.51,0,*4C
1493985909.11,23420,16.5,73782.8,7.87,-0.97,-1.39,0,*47
1493985910.32,23421,16.5,73780.5,7.85,-0.27,-0.65,0,*77
1493985911.49,23422,16.5,73780.3,7.85,0.09,-0.33,0,*66
1493985912.68,23423,16.5,73780.0,7.85,-0.15,-0.53,0,*71
1493985913.86,23424,16.5,73780.3,7.81,-0.15,-0.57,0,*76
1493985915.06,23425,16.5,73782.0,7.83,-0.29,-0.77,0,*78
1493985916.3,23426,16.5,73780.5,7.83,-0.57,-1.05,0,*46
1493985917.51,23427,16.5,73780.8,7.81,-0.41,-0.93,0,*7C
1493985918.71,23428,16.5,73782.8,7.81,-0.41,-0.89,0,*78
1493985919.92,23429,16.5,73782.0,7.81,-0.27,-0.57,0,*7A
1493985921.14,23430,16.5,73780.3,7.81,-0.45,-1.05,0,*40
1493985922.34,23431,16.5,73778.3,7.79,-0.93,-1.55,0,*48
1493985923.57,23432,16.5,73782.3,7.79,-0.97,-1.47,0,*4C
1493985924.81,23433,16.5,73780.5,7.77,-0.53,-1.09,0,*41
1493985925.98,23434,16.5,73782.5,7.79,-0.33,-0.69,0,*79
1493985927.19,23435,16.5,73782.3,7.77,-0.03,-0.49,0,*47
1493985928.4,23436,16.5,73780.8,7.77,-0.73,-1.21,0,*4C
1493985929.64,23437,16.5,73780.0,7.77,-1.09,-1.59,0,*7E
1493985930.83,23438,16.5,73780.8,7.75,-1.33,-1.75,0,*74
1493985932.06,23439,16.5,73782.8,7.73,-0.69,-1.01,0,*4E
1493985933.28,23440,16.56,73784.0,7.73,-0.69,-1.13,0,*43
1493985934.52,23441,16.5,73780.8,7.67,-0.97,-1.39,0,*4E
1493985935.7,23442,16.5,73780.0,7.71,-0.77,-1.25,0,*49
1493985936.9,23443,16.5,73778.3,7.71,-0.53,-1.01,0,*48
1493985938.08,23444,16.5,73778.5,7.67,-0.53,-0.77,0,*78
1493985939.3,23445,16.5,73780.3,7.71,-1.01,-1.51,0,*7D
1493985940.49,23446,16.56,73780.5,7.67,-0.61,-0.97,0,*75
1493985941.69,23447,16.5,73776.8,7.65,-0.11,-0.45,0,*7E
1493985942.88,23448,16.5,73782.5,7.67,-0.11,-0.49,0,*7F
1493985944.05,23449,16.5,73776.8,7.67,-0.19,-0.61,0,*7C
1493985945.25,23450,16.56,73782.0,7.65,-0.33,-0.65,0,*7A
1493985946.42,23451,16.5,73778.0,7.67,-0.07,-0.53,0,*4B
1493985947.61,23452,16.5,73778.5,7.65,0.01,-0.37,0,*63
1493985948.85,23453,16.56,73784.3,7.65,0.13,-0.23,0,*54
1493985950.09,23454,16.5,73780.0,7.65,0.17,-0.23,0,*57
1493985951.33,23455,16.5,73782.3,7.65,0.17,-0.27,0,*52
1493985952.53,23456,16.56,73784.0,7.65,0.09,-0.33,0,*6B
1493985953.73,23457,16.5,73780.5,7.65,-0.33,-0.73,0,*7A
1493985954.91,23458,16.5,73782.8,7.67,-0.11,-0.53,0,*75
1493985956.09,23459,16.5,73780.0,7.67,-0.11,-0.53,0,*74
1493985957.29,23460,16.5,73782.0,7.65,-0.03,-0.57,0,*4B
1493985958.5,23461,16.5,73780.3,7.65,-0.15,-0.49,0,*72
1493985959.7,23462,16.5,73778.8,7.65,-0.15,-0.57,0,*7E
1493985960.91,23463,16.5,73782.0,7.65,-0.15,-0.49,0,*70
1493985962.13,23464,16.5,73782.5,7.65,-0.49,-0.89,0,*72
1493985963.36,23465,16.5,73780.3,7.65,-0.73,-1.13,0,*48
1493985964.54,23466,16.5,73778.8,7.63,-0.77,-1.21,0,*48
1493985965.72,23467,16.5,73780.5,7.63,-0.77,-1.25,0,*4D
1493985966.93,23468,16.5,73782.3,7.63,-0.65,-1.09,0,*4F
1493985968.19,23469,16.5,73782.5,7.61,-0.93,-1.35,0,*4A
1493985969.39,23470,16.5,73782.3,7.59,-0.77,-1.13,0,*47
1493985970.62,23471,16.5,73780.8,7.61,-0.53,-0.89,0,*79
1493985971.82,23472,16.56,73782.3,7.59,-0.61,-0.89,0,*70
1493985973.0,23473,16.5,73780.5,7.59,-0.19,-0.49,0,*72
1493985974.2,23474,16.5,73782.8,7.57,0.09,-0.19,0,*62
1493985975.39,23475,16.5,73782.5,7.59,0.21,-0.07,0,*68
1493985976.58,23476,16.5,73782.0,7.59,0.25,0.05,0,*40
1493985977.78,23477,16.5,73780.8,7.61,0.05,-0.07,0,*57
1493985978.96,23478,16.5,73780.8,7.59,-0.15,-0.41,0,*7D
1493985980.15,23479,16.5,73780.8,7.59,-0.15,-0.37,0,*7D
1493985981.32,23480,16.5,73782.8,7.59,-0.03,-0.29,0,*43
1493985982.5,23481,16.5,73780.5,7.59,-0.03,-0.19,0,*41
1493985983.69,23482,16.5,73782.5,7.59,0.21,0.05,0,*4F
1493985984.88,23483,16.5,73780.8,7.59,0.21,0.05,0,*4E
1493985986.07,23484,16.5,73780.0,7.59,0.21,0.05,0,*49
1493985987.26,23485,16.56,73784.8,7.59,0.21,0.05,0,*48
1493985988.46,23486,16.5,73780.8,7.59,-0.07,-0.27,0,*4F
1493985989.64,23487,16.5,73782.5,7.59,-0.03,-0.19,0,*47
1493985990.83,23488,16.5,73780.0,7.59,0.21,-0.03,0,*6E
1493985992.01,23489,16.5,73782.5,7.59,0.05,-0.15,0,*6E
1493985993.21,23490,16.5,73780.8,7.61,-0.37,-0.65,0,*76
1493985994.42,23491,16.56,73784.0,7.59,-0.69,-1.01,0,*44
1493985995.62,23492,16.5,73778.5,7.59,-0.69,-1.01,0,*47
1493985996.8,23493,16.5,73776.3,7.59,-0.61,-0.81,0,*77
1493985997.98,23494,16.5,73780.0,7.59,-0.41,-0.69,0,*74
1493985999.19,23495,16.5,73780.0,7.57,-0.53,-0.81,0,*7E
1493986000.39,23496,16.5,73778.0,7.57,-0.45,-0.81,0,*7A
1493986001.58,23497,16.5,73780.3,7.55,0.01,-0.27,0,*68
1493986002.79,23498,16.5,73776.0,7.57,0.29,0.01,0,*46
1493986004.01,23499,16.56,73782.8,7.57,0.17,-0.11,0,*56
1493986005.21,23500,16.5,73778.5,7.55,0.01,-0.27,0,*67
1493986006.41,23501,16.5,73778.8,7.57,-0.07,-0.41,0,*4F
1493986007.62,23502,16.5,73780.5,7.57,-0.19,-0.53,0,*70
1493986008.83,23503,16.5,73782.0,7.57,-0.11,-0.33,0,*7F
1493986010.03,23504,16.5,73782.8,7.57,-0.11,-0.45,0,*79
1493986011.22,23505,16.5,73780.0,7.55,-0.03,-0.33,0,*48
1493986012.42,23506,16.5,73776.5,7.57,-0.19,-0.53,0,*74
1493986013.62,23507,16.5,73780.5,7.57,0.09,-0.19,0,*67
1493986014.81,23508,16.5,73776.5,7.55,0.01,-0.27,0,*6F
1493986016.01,23509,16.5,73776.0,7.55,0.13,-0.15,0,*5C
1493986017.22,23510,16.5,73778.5,7.57,0.41,0.01,0,*49
1493986018.45,23511,16.5,73776.8,7.57,0.21,-0.11,0,*52
1493986019.67,23512,16.5,73778.3,7.57,0.17,-0.11,0,*54
1493986020.86,23513,16.5,73780.0,7.59,0.25,-0.07,0,*6D
1493986022.05,23514,16.5,73780.3,7.59,0.37,0.05,0,*46
1493986023.22,23515,16.5,73782.5,7.59,0.09,-0.07,0,*55
1493986024.41,23516,16.5,73778.8,7.59,0.25,0.05,0,*47
1493986025.6,23517,16.5,73782.8,7.59,0.47,0.09,0,*4E
1493986026.81,23518,16.5,73778.5,7.61,0.43,0.21,0,*74
1493986028.03,23519,16.5,73780.8,7.59,0.47,0.13,0,*7B
1493986029.22,23520,16.5,73782.3,7.61,0.09,-0.07,0,*58
1493986030.44,23521,16.5,73782.3,7.61,0.05,-0.27,0,*67
1493986031.62,23522,16.5,73778.5,7.59,0.05,-0.19,0,*62
1493986032.81,23523,16.5,73782.5,7.59,0.05,-0.27,0,*6E
1493986034.01,23524,16.5,73778.5,7.61,-0.29,-0.65,0,*77
1493986035.19,23525,16.5,73778.3,7.59,-0.29,-0.65,0,*7D
1493986036.36,23526,16.5,73780.3,7.59,-0.29,-0.61,0,*7A
1493986037.54,23527,16.5,73782.5,7.59,-0.07,-0.49,0,*4D
1493986038.71,23528,16.5,73780.8,7.59,-0.29,-0.65,0,*70
1493986039.89,23529,16.5,73780.8,7.59,-0.19,-0.65,0,*72
1493986041.09,23530,16.5,73780.3,7.61,-0.37,-0.69,0,*71
1493986042.27,23531,16.5,73780.0,7.59,-0.29,-0.65,0,*78
1493986043.45,23532,16.5,73786.5,7.59,-0.07,-0.41,0,*41
1493986044.66,23533,16.5,73782.0,7.59,-0.77,-1.05,0,*46
1493986045.87,23534,16.5,73780.0,7.55,-0.73,-1.01,0,*4D
1493986047.1,23535,16.5,73780.3,7.57,-0.23,-0.45,0,*7A
1493986048.31,23536,16.5,73782.3,7.57,-0.19,-0.41,0,*74
1493986049.51,23537,16.5,73784.3,7.57,-0.07,-0.33,0,*4F
1493986050.72,23538,16.5,73780.3,7.55,-0.27,-0.61,0,*77
1493986051.9,23539,16.5,73778.0,7.55,-0.11,-0.45,0,*75
1493986053.09,23540,16.5,73782.3,7.55,-0.53,-0.73,0,*78
1493986054.3,23541,16.56,73784.0,7.55,-0.57,-0.89,0,*78
1493986055.48,23542,16.5,73780.5,7.55,-0.15,-0.49,0,*71
1493986056.69,23543,16.5,73780.8,7.53,-0.15,-0.57,0,*79
1493986057.91,23544,16.5,73780.3,7.53,-0.15,-0.49,0,*71
1493986059.12,23545,16.5,73780.3,7.53,-0.11,-0.33,0,*79
1493986060.3,23546,16.5,73782.0,7.55,-0.33,-0.61,0,*7B
1493986061.53,23547,16.5,73776.8,7.53,-0.57,-0.89,0,*78
1493986062.74,23548,16.5,73780.0,7.51,-0.27,-0.41,0,*76
1493986063.94,23549,16.5,73780.3,7.51,0.13,-0.15,0,*5C
1493986065.11,23550,16.5,73780.3,7.51,0.01,-0.19,0,*6B
1493986066.31,23551,16.5,73780.8,7.51,-0.03,-0.27,0,*48
1493986067.52,23552,16.5,73778.0,7.53,-0.03,-0.37,0,*48
1493986068.76,23553,16.5,73780.8,7.53,-0.73,-1.01,0,*4A
1493986070.0,23554,16.5,73782.3,7.53,-0.73,-1.09,0,*45
1493986071.25,23555,16.5,73780.8,7.51,-1.05,-1.47,0,*7C
1493986072.49,23556,16.5,73780.3,7.49,-0.85,-1.21,0,*4F
1493986073.68,23557,16.5,73778.8,7.47,-0.29,-0.65,0,*77
1493986074.89,23558,16.5,73780.5,7.49,0.05,-0.33,0,*66
1493986076.1,23559,16.5,73780.0,7.49,-0.19,-0.77,0,*77
1493986077.3,23560,16.5,73778.5,7.47,-0.77,-1.17,0,*4C
1493986078.53,23561,16.56,73784.0,7.43,-0.27,-0.69,0,*74
1493986079.73,23562,16.5,73780.3,7.43,-0.07,-0.49,0,*47
1493986080.93,23563,16.5,73782.3,7.43,-0.07,-0.49,0,*46
1493986082.12,23564,16.5,73776.8,7.43,-0.15,-0.61,0,*78
1493986083.33,23565,16.5,73782.5,7.43,-0.11,-0.57,0,*78
1493986084.56,23566,16.56,73784.3,7.43,-0.23,-0.73,0,*7C
1493986085.77,23567,16.5,73780.8,7.43,-0.81,-1.33,0,*40
1493986086.95,23568,16.5,73782.8,7.41,-0.81,-1.25,0,*4A
1493986088.15,23569,16.5,73780.3,7.41,-0.49,-1.01,0,*49
1493986089.35,23570,16.5,73780.8,7.41,-0.27,-0.73,0,*7D
1493986090.55,23571,16.5,73782.5,7.41,-0.57,-0.97,0,*71
1493986091.73,23572,16.5,73778.8,7.41,-0.81,-1.25,0,*41
1493986092.99,23573,16.5,73780.3,7.39,-0.93,-1.47,0,*48
1493986094.17,23574,16.5,73778.5,7.37,-0.69,-1.17,0,*41
1493986095.35,23575,16.5,73778.5,7.37,0.05,-0.45,0,*61
1493986096.58,23576,16.5,73780.8,7.39,-0.27,-0.73,0,*74
1493986097.82,23577,16.5,73780.3,7.37,-0.93,-1.39,0,*4B
1493986099.05,23578,16.5,73776.5,7.37,-0.93,-1.39,0,*44
1493986100.28,23579,16.5,73780.5,7.35,-0.33,-0.97,0,*78
1493986101.48,23580,16.5,73782.8,7.35,-0.29,-0.69,0,*74
1493986102.68,23581,16.5,73782.8,7.35,0.05,-0.41,0,*6C
1493986103.88,23582,16.5,73780.3,7.35,-0.29,-0.69,0,*76
1493986105.09,23583,16.5,73776.8,7.35,-0.29,-0.77,0,*78
1493986106.3,23584,16.5,73780.8,7.33,-0.23,-0.49,0,*7E
1493986107.49,23585,16.5,73780.5,7.35,0.09,-0.29,0,*6A
1493986108.69,23586,16.5,73780.5,7.33,-0.27,-0.69,0,*7A
1493986109.9,23587,16.5,73782.8,7.35,-0.41,-0.81,0,*7B
1493986111.11,23588,16.5,73778.3,7.33,-0.69,-1.09,0,*49
1493986112.38,23589,16.5,73780.5,7.31,-1.01,-1.39,0,*76
1493986113.64,23590,16.5,73778.8,7.31,-0.97,-1.39,0,*40
1493986114.88,23591,16.5,73778.8,7.31,-1.05,-1.59,0,*7D
1493986116.08,23592,16.5,73782.5,7.29,-1.17,-1.59,0,*74
1493986117.31,23593,16.5,73776.0,7.27,-0.65,-1.09,0,*4A
1493986118.49,23594,16.5,73776.8,7.25,-0.19,-0.53,0,*7A
1493986119.66,23595,16.5,73782.0,7.25,-0.29,-0.57,0,*7C